Location: Clermont
(50.2608°N, 4.3172°E)
Time: 23:12:17
(UTC+00:00)

Meteor 1-25 Rocket - Pass Details

Date: 13 August 2020
Orbit: 837 x 891 km, 81.2° (Epoch: 23 September)

Event Time Altitude Azimuth Distance (km) Brightness Sun altitude
Exits shadow 20:34:35 - 186° (S) 3,339 7.0 -12.9°
Reaches altitude 10° 20:36:52 10° 185° (S) 2,454 6.3 -13.1°
Maximum altitude 20:42:25 78° 99° (E) 871 4.2 -13.8°
Drops below altitude 10° 20:48:05 10° 15° (NNE) 2,502 7.1 -14.4°
Sets 20:50:32 0° 14° (NNE) 3,451 7.8 -14.7°
